Location: Gwatt
(46.7204°N, 7.6223°E)
Time: 00:53:34
(UTC+00:00)

Vanguard 2 - Pass Details

Date: 22 January 2021
Orbit: 552 x 2938 km, 32.9° (Epoch: 03 March)

Event Time Altitude Azimuth Distance (km) Brightness Sun altitude
Rises 18:13:52 0° 238° (WSW) 2,862 11.7 -19.6°
Reaches altitude 10° 18:16:26 10° 219° (SW) 2,117 10.4 -20.0°
Maximum altitude 18:19:53 19° 173° (S) 1,827 9.4 -20.6°
Enters shadow 18:22:30 15° 142° (SE) 2,300 9.7 -21.0°
Drops below altitude 10° 18:24:20 10° 129° (SE) 2,828 - -21.3°
Sets 18:28:30 0° 114° (ESE) 4,232 - -22.0°
